Tracking 28790 objects as of 19-Apr-2024
HD Live streaming from Space Station
objects crossing your sky now

YAOGAN-32 B

Track YAOGAN-32 B now!
10-day predictions


NORAD ID: 43643
Int'l Code: 2018-077B
Perigee: 695.9 km
Apogee: 698.7 km
Inclination: 98.0 °
Period: 98.6 minutes
Semi major axis: 7068 km
RCS: Unknown
Launch date: October 9, 2018
Source: People's Republic of China (PRC)
Launch site: Jiuquan Satellite Launch Center, China (JSC)
Your satellite tracking list
Your tracking list is empty




NASA's NSSDC Master Catalog

Two Line Element Set (TLE):
1 43643U 18077B   24110.51423930  .00002452  00000-0  50967-3 0  9991
2 43643  97.9929 153.4438 0001937  98.3454 261.7967 14.60931463294570
Source of the keplerian elements: AFSPC